Stevens Point, WI

7:25 PM CDT on September 25, 2017 (GMT -0500)
Stevens Point Municipal

Weather History for KSTE - April, 2013

Change the Weather History Date:

Wednesday, April 17, 2013

  Actual Average Record
Temperature  
Mean Temperature 30 °F -  
Max Temperature 36 °F 55 °F 83 °F (1964)
Min Temperature 25 °F 35 °F 12 °F (1983)
Degree Days  
Heating Degree Days 34    
Moisture  
Dew Point 28 °F    
Average Humidity 83    
Maximum Humidity 97    
Minimum Humidity 71    
Precipitation  
Precipitation 0.03 in - - ()
Sea Level Pressure  
Sea Level Pressure 30.19 in    
Wind  
Wind Speed 8 mph (ENE)    
Max Wind Speed 17 mph    
Max Gust Speed 39 mph    
Visibility 10 miles    
Events Rain    
Averages and records for this station are not official NWS values.
T = Trace of Precipitation, MM = Missing Value Source: NWS Daily Summary

Daily Weather History Graph

Daily Weather History Graph

Search for Another Location

Airport or City:

Trip Planner

Search our weather history database for the weather conditions in past years. The results will help you decide how hot, cold, wet, or windy it might be!

Date:

Astronomy

Apr. 17, 2013 Rise Set
Actual Time 6:10 AM CDT 7:45 PM CDT
Civil Twilight 5:39 AM CDT 8:16 PM CDT
Nautical Twilight 5:02 AM CDT 8:53 PM CDT
Astronomical Twilight 4:22 AM CDT 9:33 PM CDT
Moon 11:19 AM CDT (4/17) 1:28 AM CDT (4/17)
Length of Visible Light 14h 36m
Length of Day
13h 35m
Waxing Crescent, 42% of the Moon is Illuminated
Apr 17
Waxing Crescent
Apr 18
First Quarter
Apr 25
Full
May 2
Last Quarter
May 9
New

Hourly Weather History & Observations

Time (CDT) Temp. Windchill Dew Point Humidity Pressure Visibility Wind Dir Wind Speed Gust Speed Precip Events Conditions
12:15 AM 28.0 °F - 24.6 °F 87% 30.33 in 10.0 mi Calm Calm - N/A   Clear
12:35 AM 26.4 °F - 23.9 °F 90% 30.33 in 10.0 mi Calm Calm - N/A   Clear
12:55 AM 25.3 °F 21.1 °F 23.4 °F 92% 30.33 in 10.0 mi North 3.5 mph - N/A   Clear
1:15 AM 25.7 °F 19.0 °F 23.5 °F 92% 30.32 in 10.0 mi NNE 5.8 mph - N/A   Clear
1:35 AM 27.5 °F 20.2 °F 24.3 °F 88% 30.32 in 10.0 mi NE 6.9 mph - N/A   Clear
1:55 AM 31.6 °F 25.1 °F 24.3 °F 74% 30.33 in 10.0 mi NE 6.9 mph - N/A   Clear
2:15 AM 32.0 °F 24.2 °F 25.0 °F 75% 30.33 in 10.0 mi ENE 9.2 mph - N/A   Clear
2:35 AM 32.0 °F 24.2 °F 25.7 °F 78% 30.32 in 10.0 mi East 9.2 mph - N/A   Clear
2:55 AM 31.8 °F 24.6 °F 26.1 °F 79% 30.33 in 10.0 mi ENE 8.1 mph - N/A   Clear
3:15 AM 31.6 °F 23.1 °F 26.4 °F 81% 30.33 in 10.0 mi ENE 10.4 mph - N/A   Clear
3:35 AM 31.6 °F 23.7 °F 26.4 °F 81% 30.33 in 10.0 mi ENE 9.2 mph - N/A   Clear
3:55 AM 31.6 °F 23.7 °F 26.2 °F 80% 30.34 in 10.0 mi East 9.2 mph - N/A   Clear
4:15 AM 31.1 °F 23.1 °F 26.1 °F 82% 30.34 in 10.0 mi ENE 9.2 mph - N/A   Clear
4:35 AM 30.7 °F 22.6 °F 25.7 °F 82% 30.34 in 10.0 mi ENE 9.2 mph - N/A   Clear
4:55 AM 30.4 °F 21.5 °F 25.5 °F 82% 30.33 in 10.0 mi ENE 10.4 mph - N/A   Clear
5:15 AM 30.2 °F 21.9 °F 25.3 °F 82% 30.33 in 10.0 mi East 9.2 mph - N/A   Clear
5:35 AM 30.0 °F 21.1 °F 25.3 °F 83% 30.32 in 10.0 mi ENE 10.4 mph - N/A   Clear
5:55 AM 29.7 °F 20.7 °F 25.3 °F 84% 30.31 in 10.0 mi ENE 10.4 mph - N/A   Clear
6:15 AM 29.7 °F 20.1 °F 25.3 °F 84% 30.31 in 10.0 mi ENE 11.5 mph - N/A   Clear
6:35 AM 30.0 °F 21.1 °F 25.5 °F 83% 30.31 in 10.0 mi ENE 10.4 mph - N/A   Clear
6:55 AM 30.4 °F 20.5 °F 25.7 °F 83% 30.32 in 10.0 mi ENE 12.7 mph - N/A   Clear
7:15 AM 30.7 °F 21.4 °F 26.1 °F 83% 30.33 in 10.0 mi East 11.5 mph 18.4 mph N/A   Clear
7:35 AM 31.5 °F 21.8 °F 26.6 °F 82% 30.33 in 10.0 mi ENE 12.7 mph - N/A   Mostly Cloudy
7:55 AM 31.5 °F 23.5 °F 26.4 °F 82% 30.32 in 10.0 mi ENE 9.2 mph - N/A   Overcast
8:15 AM 31.8 °F 23.9 °F 26.6 °F 81% 30.34 in 10.0 mi East 9.2 mph - N/A   Overcast
8:35 AM 32.0 °F 24.2 °F 26.8 °F 81% 30.35 in 10.0 mi East 9.2 mph - N/A   Overcast
9:15 AM 32.5 °F 23.7 °F 27.0 °F 80% 30.34 in 10.0 mi East 11.5 mph 16.1 mph N/A   Overcast
9:35 AM 32.9 °F 23.7 °F 27.1 °F 79% 30.30 in 10.0 mi ENE 12.7 mph - N/A   Overcast
9:55 AM 33.8 °F 24.8 °F 27.1 °F 77% 30.25 in 10.0 mi ENE 12.7 mph - N/A   Overcast
10:15 AM 34.2 °F 25.7 °F 27.0 °F 75% 30.26 in 10.0 mi ENE 11.5 mph 19.6 mph N/A   Overcast
10:35 AM 34.2 °F 26.2 °F 27.3 °F 76% 30.26 in 10.0 mi ENE 10.4 mph 16.1 mph N/A   Overcast
10:55 AM 34.9 °F 27.1 °F 27.5 °F 74% 30.23 in 10.0 mi ENE 10.4 mph - N/A   Overcast
11:15 AM 35.1 °F 27.9 °F 27.3 °F 73% 30.22 in 10.0 mi ENE 9.2 mph - N/A   Overcast
11:35 AM 35.6 °F 28.6 °F 27.0 °F 71% 30.25 in 10.0 mi East 9.2 mph 17.3 mph N/A   Overcast
11:55 AM 35.6 °F 28.6 °F 27.1 °F 71% 30.25 in 10.0 mi East 9.2 mph - N/A   Overcast
12:15 PM 35.4 °F 29.7 °F 27.3 °F 72% 30.25 in 10.0 mi ENE 6.9 mph - N/A   Light Drizzle
12:35 PM 35.6 °F 28.6 °F 28.0 °F 74% 30.25 in 10.0 mi ESE 9.2 mph - N/A Rain Light Rain
12:55 PM 35.1 °F 30.1 °F 28.8 °F 78% 30.25 in 10.0 mi ENE 5.8 mph - N/A Rain Light Rain
1:15 PM 35.1 °F 29.3 °F 30.2 °F 82% 30.23 in 10.0 mi NNE 6.9 mph - N/A Rain Light Rain
1:35 PM 34.7 °F 28.1 °F 30.4 °F 84% 30.22 in 10.0 mi NNE 8.1 mph - N/A Rain Light Rain
1:55 PM 34.3 °F 28.4 °F 30.7 °F 87% 30.22 in 10.0 mi ENE 6.9 mph - N/A Rain Light Rain
2:15 PM 34.2 °F 28.2 °F 30.9 °F 88% 30.23 in 10.0 mi ENE 6.9 mph - N/A Rain Light Rain
2:35 PM 34.3 °F 27.7 °F 32.0 °F 91% 30.21 in 10.0 mi ENE 8.1 mph - N/A Rain Light Rain
2:55 PM 34.2 °F 25.7 °F 31.6 °F 90% 30.18 in 10.0 mi ENE 11.5 mph - N/A Rain Light Rain
3:35 PM 34.7 °F 24.3 °F 31.1 °F 87% 30.06 in 10.0 mi ENE 17.3 mph 39.1 mph N/A   Scattered Clouds
3:55 PM 35.6 °F 26.2 °F 30.6 °F 82% 30.11 in 10.0 mi ENE 15.0 mph 24.2 mph N/A   Scattered Clouds
4:15 PM 35.6 °F 26.2 °F 30.6 °F 82% 30.09 in 10.0 mi East 15.0 mph 21.9 mph N/A   Overcast
4:35 PM 36.1 °F 26.9 °F 30.9 °F 81% 30.09 in 10.0 mi East 15.0 mph 19.6 mph N/A   Mostly Cloudy
4:55 PM 36.1 °F 27.7 °F 30.7 °F 81% 30.10 in 10.0 mi East 12.7 mph - N/A   Mostly Cloudy
5:15 PM 36.5 °F 28.2 °F 30.9 °F 80% 30.10 in 10.0 mi ENE 12.7 mph - N/A   Overcast
5:35 PM 36.1 °F 27.7 °F 30.2 °F 79% 30.08 in 10.0 mi ENE 12.7 mph - N/A   Overcast
5:55 PM 35.8 °F 28.3 °F 30.2 °F 80% 30.07 in 10.0 mi ENE 10.4 mph 16.1 mph N/A   Overcast
6:15 PM 35.6 °F 27.5 °F 30.0 °F 80% 30.07 in 10.0 mi East 11.5 mph 16.1 mph N/A   Overcast
6:35 PM 35.6 °F 28.6 °F 29.8 °F 80% 30.06 in 10.0 mi ENE 9.2 mph - N/A   Overcast
6:55 PM 35.1 °F 26.9 °F 29.3 °F 80% 30.04 in 10.0 mi ENE 11.5 mph 17.3 mph N/A   Overcast
7:15 PM 34.7 °F 25.1 °F 29.5 °F 81% 30.01 in 10.0 mi ENE 15.0 mph 24.2 mph N/A   Overcast
7:35 PM 34.3 °F 25.9 °F 29.8 °F 84% 29.99 in 10.0 mi ENE 11.5 mph - N/A   Overcast
7:55 PM 34.3 °F 25.0 °F 30.2 °F 85% 30.00 in 10.0 mi ENE 13.8 mph 17.3 mph N/A   Overcast
8:15 PM 34.2 °F 25.7 °F 30.7 °F 87% 29.98 in 10.0 mi ENE 11.5 mph - N/A   Overcast
8:35 PM 33.8 °F 23.9 °F 31.5 °F 91% 29.96 in 7.0 mi ENE 15.0 mph 19.6 mph N/A   Overcast
8:55 PM 33.8 °F 25.3 °F 32.0 °F 93% 29.96 in 10.0 mi NE 11.5 mph 25.3 mph N/A   Overcast
9:15 PM 34.0 °F 25.5 °F 32.0 °F 92% 29.99 in 10.0 mi ENE 11.5 mph 18.4 mph N/A   Overcast
9:35 PM 34.2 °F 27.5 °F 32.0 °F 92% 30.01 in 10.0 mi East 8.1 mph 16.1 mph N/A   Overcast
9:55 PM 34.2 °F 26.2 °F 32.0 °F 92% 29.98 in 10.0 mi ENE 10.4 mph - N/A   Overcast
10:15 PM 34.2 °F 24.8 °F 32.0 °F 92% 29.96 in 10.0 mi ENE 13.8 mph 18.4 mph N/A   Overcast
10:35 PM 34.0 °F 25.5 °F 32.4 °F 94% 29.95 in 4.0 mi ENE 11.5 mph - N/A   Overcast
10:55 PM 33.8 °F 25.3 °F 32.9 °F 96% 29.93 in 3.0 mi ENE 11.5 mph 16.1 mph N/A Rain Light Rain
11:15 PM 33.8 °F 25.8 °F 32.9 °F 96% 29.93 in 4.0 mi ENE 10.4 mph 16.1 mph N/A Rain Rain
11:35 PM 34.0 °F 26.0 °F 33.3 °F 97% 29.93 in 3.0 mi ENE 10.4 mph - N/A   Drizzle
11:55 PM 34.2 °F 25.7 °F 33.4 °F 97% 29.93 in 5.0 mi ENE 11.5 mph - 0.03 in Rain Light Rain